This is the latest recevied weather packets stored in our database for station/object PACCTY-2. If no packets are shown the sender has not sent any weather packets the latest 1 day(s).
| Time | Temp. | Humidity | Pressure | Rain* | Wind** | Luminosity | Snow |
|---|---|---|---|---|---|---|---|
| 1778035258 | 13.33° C | - | - | 0 mm | 2.24 m/s, 319° | - | - |
| 1778034957 | 13.33° C | - | - | 0 mm | 2.24 m/s, 338° | - | - |
| 1778034054 | 13.33° C | - | - | 0 mm | 2.24 m/s, 333° | - | - |
| 1778033754 | 13.33° C | - | - | 0 mm | 2.68 m/s, 337° | - | - |
| 1778033157 | 13.89° C | - | - | 0 mm | 2.24 m/s, 343° | - | - |
| 1778033151 | 13.89° C | - | - | 0 mm | 2.24 m/s, 343° | - | - |
| 1778032251 | 13.89° C | - | - | 0 mm | 2.24 m/s, 341° | - | - |
| 1778031646 | 13.89° C | - | - | 0 mm | 3.13 m/s, 345° | - | - |
| 1778031345 | 13.89° C | - | - | 0 mm | 2.68 m/s, 333° | - | - |
| 1778031044 | 13.89° C | - | - | 0 mm | 2.68 m/s, 326° | - | - |
| 1778030142 | 13.89° C | - | - | 0 mm | 2.68 m/s, 330° | - | - |
| 1778029840 | 13.89° C | - | - | 0 mm | 2.68 m/s, 336° | - | - |
| 1778029539 | 13.89° C | - | - | 0 mm | 2.68 m/s, 344° | - | - |
| 1778029239 | 14.44° C | - | - | 0 mm | 2.68 m/s, 326° | - | - |
| 1778028940 | 14.44° C | - | - | 0 mm | 2.68 m/s, 324° | - | - |
| 1778028637 | 14.44° C | - | - | 0 mm | 2.24 m/s, 323° | - | - |
| 1778027733 | 14.44° C | - | - | 0 mm | 2.68 m/s, 336° | - | - |
| 1778026529 | 14.44° C | - | - | 0 mm | 3.13 m/s, 326° | - | - |
| 1778026229 | 14.44° C | - | - | 0 mm | 2.68 m/s, 322° | - | - |
| 1778025927 | 14.44° C | - | - | 0 mm | 2.68 m/s, 326° | - | - |
| 1778025325 | 14.44° C | - | - | 0 mm | 2.68 m/s, 323° | - | - |
| 1778025024 | 15° C | - | - | 0 mm | 2.68 m/s, 324° | - | - |
| 1778022616 | 15° C | - | - | 0 mm | 3.13 m/s, 331° | - | - |
| 1778021715 | 15° C | - | - | 0 mm | 2.68 m/s, 316° | - | - |
| 1778020510 | 14.44° C | - | - | 0 mm | 2.24 m/s, 302° | - | - |
* Rain latest hour (hover to see other rain measurements)
** Current wind speed in m/s (hover to see current wind gust speed)